N8YZF Weather Reports


Display with metric or nautical units.
time (UTC)temp
F
wind
direction
speed
MPH
gust
MPH
rain 1hr
in
rain 24hr
in
rain mn
in
humidity
%
barometer
mb
20180618033502 81 213 0.0 0.0 0.00 0.00 0.00 73 1011.8
20180618032913 81 229 2.0 6.0 0.00 0.00 0.00 73 1011.6
20180618032314 81 228 4.0 7.0 0.00 0.00 0.00 73 1011.7
20180618031749 81 238 4.0 10.0 0.00 0.00 0.00 72 1011.7
20180618031158 81 227 5.0 10.0 0.00 0.00 0.00 72 1011.8
20180618030609 81 234 4.0 12.0 0.00 0.00 0.00 72 1011.8
20180618030020 81 207 2.0 5.0 0.00 0.00 0.00 72 1011.7
20180618025442 81 254 1.0 4.0 0.00 0.00 0.00 72 1011.7
20180618024910 81 209 1.0 7.0 0.00 0.00 0.00 72 1011.8
20180618024303 81 209 2.0 5.0 0.00 0.00 0.00 72 1011.7
20180618023736 81 215 2.0 5.0 0.00 0.00 0.00 72 1011.7
20180618023200 81 214 1.0 4.0 0.00 0.00 0.00 72 1011.7
20180618022610 81 218 0.0 0.0 0.00 0.00 0.00 72 1011.7
20180618022037 81 216 0.0 0.0 0.00 0.00 0.00 72 1011.7
20180618021450 81 238 1.0 5.0 0.00 0.00 0.00 72 1011.5
20180618020858 81 215 1.0 5.0 0.00 0.00 0.00 72 1011.5
20180618020313 81 216 0.0 1.0 0.00 0.00 0.00 72 1011.5
20180618015725 82 210 1.0 1.0 0.00 0.00 0.00 71 1011.3
20180618015157 82 211 0.0 1.0 0.00 0.00 0.00 71 1011.3
20180618014621 82 205 0.0 0.0 0.00 0.00 0.00 71 1011.3
20180618014031 82 208 0.0 0.0 0.00 0.00 0.00 71 1011.4
20180618013459 82 219 0.0 0.0 0.00 0.00 0.00 70 1011.4
20180618012913 82 221 0.0 0.0 0.00 0.00 0.00 70 1011.4
20180618012316 83 213 2.0 3.0 0.00 0.00 0.00 70 1011.5
20180618011814 83 213 3.0 5.0 0.00 0.00 0.00 69 1011.5
20180618011304 83 211 2.0 5.0 0.00 0.00 0.00 69 1011.4
20180618010719 83 209 1.0 5.0 0.00 0.00 0.00 68 1011.4
20180618010143 83 213 0.0 4.0 0.00 0.00 0.00 68 1011.4
20180618005552 84 212 0.0 0.0 0.00 0.00 0.00 67 1011.5
20180618005021 84 234 1.0 7.0 0.00 0.00 0.00 67 1011.6
20180618004432 84 256 3.0 6.0 0.00 0.00 0.00 66 1011.4
20180618003855 85 219 4.0 10.0 0.00 0.00 0.00 65 1011.4
20180618003322 85 220 3.0 9.0 0.00 0.00 0.00 64 1011.4
20180618002811 86 225 3.0 10.0 0.00 0.00 0.00 64 1011.5
20180618002250 86 213 5.0 10.0 0.00 0.00 0.00 63 1011.5
20180618001717 86 240 4.0 6.0 0.00 0.00 0.00 63 1011.5
20180618001123 86 248 3.0 3.0 0.00 0.00 0.00 62 1011.5
20180618000531 87 215 3.0 11.0 0.00 0.00 0.00 62 1011.5
20180617235936 87 209 1.0 6.0 0.00 0.00 0.00 61 1011.2
20180617235404 87 234 2.0 8.0 0.00 0.00 0.00 62 1011.2
20180617234836 87 229 3.0 8.0 0.00 0.00 0.00 61 1011.3
20180617234309 87 232 5.0 7.0 0.00 0.00 0.00 61 1011.3
20180617233759 87 210 7.0 12.0 0.00 0.00 0.00 61 1011.3
20180617233226 87 221 6.0 13.0 0.00 0.00 0.00 60 1011.3
20180617232629 88 236 7.0 13.0 0.00 0.00 0.00 61 1011.4
20180617232054 88 218 8.0 13.0 0.00 0.00 0.00 60 1011.4
20180617231505 88 209 7.0 13.0 0.00 0.00 0.00 60 1011.5
20180617230916 88 237 5.0 10.0 0.00 0.00 0.00 60 1011.5
20180617230325 88 195 4.0 13.0 0.00 0.00 0.00 60 1011.5
20180617225812 88 209 6.0 18.0 0.00 0.00 0.00 60 1011.7
20180617225311 88 214 8.0 18.0 0.00 0.00 0.00 59 1011.7
20180617224740 89 211 7.0 18.0 0.00 0.00 0.00 59 1011.7
20180617224150 89 207 5.0 12.0 0.00 0.00 0.00 59 1011.9
20180617223618 89 200 5.0 9.0 0.00 0.00 0.00 59 1011.9
20180617223012 89 197 5.0 10.0 0.00 0.00 0.00 59 1011.9
20180617222452 89 205 5.0 12.0 0.00 0.00 0.00 60 1012.1
20180617221917 89 242 7.0 12.0 0.00 0.00 0.00 61 1012.1
20180617221324 89 229 7.0 13.0 0.00 0.00 0.00 60 1012.3
20180617220815 89 230 7.0 13.0 0.00 0.00 0.00 60 1012.3
20180617220312 89 240 6.0 13.0 0.00 0.00 0.00 60 1012.3
20180617215758 90 251 6.0 13.0 0.00 0.00 0.00 59 1012.4
20180617215220 90 232 7.0 9.0 0.00 0.00 0.00 59 1012.4
20180617214647 90 275 5.0 12.0 0.00 0.00 0.00 60 1012.4
20180617214056 89 230 4.0 12.0 0.00 0.00 0.00 60 1012.5
20180617213522 88 207 4.0 7.0 0.00 0.00 0.00 62 1012.5
20180617212931 88 217 5.0 12.0 0.00 0.00 0.00 61 1012.4
20180617212356 89 204 7.0 12.0 0.00 0.00 0.00 60 1012.4
20180617211832 89 200 8.0 12.0 0.00 0.00 0.00 59 1012.4
20180617211321 89 223 7.0 13.0 0.00 0.00 0.00 59 1012.5
20180617210818 89 221 6.0 13.0 0.00 0.00 0.00 59 1012.6
20180617210315 89 222 7.0 11.0 0.00 0.00 0.00 59 1012.6
20180617205806 90 202 9.0 10.0 0.00 0.00 0.00 58 1013.0
20180617205238 90 208 7.0 14.0 0.00 0.00 0.00 58 1013.0
20180617204703 90 213 6.0 11.0 0.00 0.00 0.00 58 1013.0
20180617204111 89 193 7.0 11.0 0.00 0.00 0.00 58 1012.9
20180617203535 89 213 7.0 11.0 0.00 0.00 0.00 59 1013.0
20180617203019 90 217 5.0 11.0 0.00 0.00 0.00 58 1013.0
20180617202510 90 208 5.0 11.0 0.00 0.00 0.00 58 1013.0
20180617201936 90 267 8.0 11.0 0.00 0.00 0.00 57 1013.0
20180617201341 90 228 10.0 18.0 0.00 0.00 0.00 56 1013.1
20180617200823 91 229 10.0 19.0 0.00 0.00 0.00 55 1013.1
20180617200320 91 224 9.0 19.0 0.00 0.00 0.00 55 1013.1
20180617195816 91 226 10.0 17.0 0.00 0.00 0.00 55 1013.1
20180617195242 91 194 7.0 15.0 0.00 0.00 0.00 55 1013.1
20180617194712 91 246 6.0 11.0 0.00 0.00 0.00 56 1013.1
20180617194123 90 277 8.0 15.0 0.00 0.00 0.00 56 1013.1
20180617193546 90 213 5.0 12.0 0.00 0.00 0.00 57 1013.1
20180617192957 90 246 6.0 15.0 0.00 0.00 0.00 58 1013.2
20180617192423 90 229 6.0 15.0 0.00 0.00 0.00 57 1013.2
20180617191846 91 236 5.0 15.0 0.00 0.00 0.00 58 1013.2
20180617191321 91 207 6.0 10.0 0.00 0.00 0.00 59 1013.4
20180617190755 90 202 8.0 14.0 0.00 0.00 0.00 58 1013.4
20180617190226 90 247 9.0 14.0 0.00 0.00 0.00 57 1013.4
20180617185634 91 203 7.0 11.0 0.00 0.00 0.00 58 1013.2
20180617185059 91 217 8.0 13.0 0.00 0.00 0.00 59 1013.2
20180617184510 90 221 8.0 17.0 0.00 0.00 0.00 59 1013.4
20180617183936 89 212 6.0 14.0 0.00 0.00 0.00 61 1013.3
20180617183359 89 225 7.0 14.0 0.00 0.00 0.00 59 1013.3
20180617182827 90 229 7.0 14.0 0.00 0.00 0.00 56 1013.7
20180617182320 91 207 7.0 11.0 0.00 0.00 0.00 56 1013.7
20180617181817 91 207 7.0 10.0 0.00 0.00 0.00 56 1013.7
20180617181319 90 246 5.0 10.0 0.00 0.00 0.00 58 1013.7
20180617180730 90 217 4.0 10.0 0.00 0.00 0.00 60 1013.7
20180617180200 90 240 5.0 10.0 0.00 0.00 0.00 58 1013.7
20180617175610 89 241 4.0 11.0 0.00 0.00 0.00 60 1013.7
20180617175032 89 227 3.0 11.0 0.00 0.00 0.00 60 1013.7
20180617174442 89 246 4.0 8.0 0.00 0.00 0.00 61 1013.8
20180617173905 90 275 6.0 12.0 0.00 0.00 0.00 58 1013.9
20180617173324 90 208 7.0 12.0 0.00 0.00 0.00 58 1013.9
20180617172815 91 247 5.0 11.0 0.00 0.00 0.00 57 1014.1
20180617172251 91 285 5.0 12.0 0.00 0.00 0.00 57 1014.1
20180617171717 91 228 6.0 12.0 0.00 0.00 0.00 59 1014.1
20180617171123 91 213 3.0 7.0 0.00 0.00 0.00 59 1014.4
20180617170534 90 254 2.0 8.0 0.00 0.00 0.00 61 1014.4
20180617165947 90 201 3.0 9.0 0.00 0.00 0.00 62 1014.4
20180617165411 90 214 4.0 10.0 0.00 0.00 0.00 62 1014.4
20180617164839 90 225 5.0 10.0 0.00 0.00 0.00 62 1014.3
20180617164314 89 240 2.0 6.0 0.00 0.00 0.00 62 1014.3
20180617163806 89 218 3.0 7.0 0.00 0.00 0.00 64 1014.3
20180617163231 88 246 6.0 11.0 0.00 0.00 0.00 64 1014.2
20180617162640 88 234 4.0 11.0 0.00 0.00 0.00 66 1014.3
20180617162106 88 213 4.0 9.0 0.00 0.00 0.00 67 1014.3
20180617161513 87 201 5.0 8.0 0.00 0.00 0.00 67 1014.4
20180617160924 87 170 4.0 9.0 0.00 0.00 0.00 68 1014.4
20180617160322 87 261 4.0 11.0 0.00 0.00 0.00 68 1014.4
20180617155747 87 178 4.0 11.0 0.00 0.00 0.00 67 1014.3
20180617155219 86 215 4.0 9.0 0.00 0.00 0.00 69 1014.3
20180617154644 86 212 5.0 10.0 0.00 0.00 0.00 68 1014.3
20180617154049 86 214 5.0 10.0 0.00 0.00 0.00 69 1014.4
20180617153515 86 212 4.0 10.0 0.00 0.00 0.00 68 1014.4
20180617153010 86 207 5.0 14.0 0.00 0.00 0.00 69 1014.6
20180617152456 86 216 4.0 14.0 0.00 0.00 0.00 68 1014.6
20180617151918 86 235 5.0 11.0 0.00 0.00 0.00 69 1014.6
20180617151325 85 209 6.0 11.0 0.00 0.00 0.00 68 1014.7
20180617150815 86 250 3.0 10.0 0.00 0.00 0.00 69 1014.7
20180617150311 85 273 2.0 7.0 0.00 0.00 0.00 70 1014.7
20180617145758 85 238 4.0 6.0 0.00 0.00 0.00 71 1014.7
20180617145226 85 248 4.0 8.0 0.00 0.00 0.00 70 1014.7
20180617144651 85 215 4.0 11.0 0.00 0.00 0.00 71 1014.7
20180617144058 84 233 3.0 8.0 0.00 0.00 0.00 73 1014.7
20180617143518 84 224 3.0 7.0 0.00 0.00 0.00 74 1014.7
20180617142925 83 219 3.0 7.0 0.00 0.00 0.00 76 1014.6
20180617142320 82 209 3.0 7.0 0.00 0.00 0.00 80 1014.5
20180617141816 81 211 4.0 9.0 0.00 0.00 0.00 80 1014.5
20180617141307 81 212 2.0 9.0 0.00 0.00 0.00 80 1014.6
20180617140710 80 211 0.0 0.0 0.00 0.00 0.00 81 1014.5
20180617140137 80 211 0.0 0.0 0.00 0.00 0.00 84 1014.5
20180617135554 78 211 1.0 4.0 0.00 0.00 0.00 85 1014.6
20180617135018 78 211 2.0 5.0 0.00 0.00 0.00 86 1014.6
20180617134429 77 211 2.0 5.0 0.00 0.00 0.00 86 1014.5
20180617133857 77 211 2.0 5.0 0.00 0.00 0.00 87 1014.5
20180617133326 76 211 1.0 5.0 0.00 0.00 0.00 88 1014.5
20180617132816 76 211 0.0 0.0 0.00 0.00 0.00 89 1014.3
20180617132259 76 211 0.0 1.0 0.00 0.00 0.00 89 1014.3
20180617131728 75 211 0.0 1.0 0.00 0.00 0.00 89 1014.3
20180617131134 75 211 0.0 0.0 0.00 0.00 0.00 89 1014.4
20180617130538 74 211 0.0 0.0 0.00 0.00 0.00 89 1014.4
20180617125946 74 211 0.0 0.0 0.00 0.00 0.00 89 1014.3
20180617125413 74 211 0.0 0.0 0.00 0.00 0.00 90 1014.3
20180617124821 73 211 0.0 0.0 0.00 0.00 0.00 91 1014.2
20180617124307 73 211 0.0 0.0 0.00 0.00 0.00 91 1014.1
20180617123757 72 211 0.0 0.0 0.00 0.00 0.00 92 1014.1
20180617123218 72 211 0.0 0.0 0.00 0.00 0.00 93 1014.0
20180617122627 71 211 0.0 0.0 0.00 0.00 0.00 93 1013.9
20180617122056 71 211 0.0 0.0 0.00 0.00 0.00 94 1013.9
20180617121502 70 211 0.0 0.0 0.00 0.00 0.00 95 1013.8
20180617120907 70 211 0.0 0.0 0.00 0.00 0.00 95 1013.7
20180617120310 70 211 0.0 0.0 0.00 0.00 0.00 96 1013.7
20180617115729 69 211 0.0 0.0 0.00 0.00 0.00 96 1013.3
20180617115153 69 211 0.0 0.0 0.00 0.00 0.00 96 1013.3
20180617114618 69 211 0.0 0.0 0.00 0.00 0.00 96 1013.3
20180617114029 68 211 0.0 0.0 0.00 0.00 0.00 97 1013.2
20180617113456 68 211 0.0 0.0 0.00 0.00 0.00 97 1013.2
20180617112905 68 211 0.0 0.0 0.00 0.00 0.00 97 1013.2
20180617112315 67 211 0.0 1.0 0.00 0.00 0.00 97 1013.1
20180617111742 66 211 0.0 1.0 0.00 0.00 0.00 97 1013.1
20180617111151 66 211 0.0 0.0 0.00 0.00 0.00 97 1012.9
20180617110556 65 211 0.0 0.0 0.00 0.00 0.00 97 1012.8
20180617110004 64 211 0.0 0.0 0.00 0.00 0.00 97 1013.0
20180617105430 64 211 0.0 0.0 0.00 0.00 0.00 97 1012.9
20180617104857 64 211 0.0 0.0 0.00 0.00 0.00 97 1012.9
20180617104254 64 211 0.0 1.0 0.00 0.00 0.00 97 1013.1
20180617103716 64 211 0.0 1.0 0.00 0.00 0.00 97 1013.1
20180617103140 64 211 0.0 1.0 0.00 0.00 0.00 97 1013.1
20180617102548 63 211 0.0 0.0 0.00 0.00 0.00 97 1013.1
20180617102011 63 211 0.0 0.0 0.00 0.00 0.00 97 1013.1
20180617101421 63 211 0.0 0.0 0.00 0.00 0.00 97 1013.1
20180617100813 63 211 0.0 0.0 0.00 0.00 0.00 97 1013.1
20180617095651 63 211 0.0 1.0 0.00 0.00 0.00 97 1013.2
20180617095121 63 211 0.0 0.0 0.00 0.00 0.00 97 1013.2
20180617094502 63 211 0.0 0.0 0.00 0.00 0.00 96 1013.2
20180617093926 63 211 0.0 0.0 0.00 0.00 0.00 96 1013.2
20180617093351 63 211 0.0 0.0 0.00 0.00 0.00 96 1013.2
20180617092818 63 211 0.0 0.0 0.00 0.00 0.00 96 1012.9
20180617092314 63 211 0.0 0.0 0.00 0.00 0.00 97 1012.9
20180617091740 63 211 0.0 0.0 0.00 0.00 0.00 97 1012.9
20180617091150 63 211 0.0 0.0 0.00 0.00 0.00 96 1012.9
20180617090553 63 211 0.0 0.0 0.00 0.00 0.00 96 1012.9
20180617085958 63 211 0.0 0.0 0.00 0.00 0.00 96 1012.8
20180617085425 63 211 0.0 0.0 0.00 0.01 0.00 96 1012.8
20180617084809 63 211 0.0 0.0 0.00 0.01 0.00 96 1012.8
20180617084247 64 211 0.0 0.0 0.00 0.01 0.00 96 1012.5
20180617083717 64 211 0.0 0.0 0.00 0.01 0.00 96 1012.5
20180617083142 64 211 0.0 0.0 0.00 0.01 0.00 96 1012.5
20180617082547 64 211 0.0 0.0 0.00 0.01 0.00 96 1012.4
20180617082015 64 211 0.0 0.0 0.00 0.01 0.00 96 1012.4
20180617081512 64 211 0.0 0.0 0.00 0.01 0.00 96 1012.4
20180617080935 64 211 0.0 0.0 0.00 0.01 0.00 96 1012.7
20180617080400 64 211 0.0 0.0 0.00 0.01 0.00 96 1012.8
20180617075803 64 211 0.0 0.0 0.00 0.01 0.00 96 1012.8
20180617075232 64 211 0.0 0.0 0.00 0.01 0.00 96 1012.8
20180617074657 64 211 0.0 0.0 0.00 0.01 0.00 96 1012.7
20180617074104 64 211 0.0 0.0 0.00 0.01 0.00 96 1012.7
20180617073525 64 211 0.0 0.0 0.00 0.01 0.00 96 1012.8
20180617073008 64 211 0.0 0.0 0.00 0.01 0.00 96 1012.8
20180617072505 64 211 0.0 0.0 0.00 0.01 0.00 96 1012.4
20180617071932 64 211 0.0 0.0 0.00 0.01 0.00 96 1012.4
20180617071342 64 211 0.0 0.0 0.00 0.01 0.00 95 1012.7
20180617070825 64 211 0.0 0.0 0.00 0.01 0.00 95 1012.7
20180617070318 65 211 0.0 0.0 0.00 0.01 0.00 95 1012.7
20180617065811 65 211 0.0 0.0 0.00 0.01 0.00 95 1012.7
20180617065249 65 211 0.0 0.0 0.00 0.01 0.00 96 1012.7
20180617064713 65 211 0.0 0.0 0.00 0.01 0.00 96 1012.7
20180617064124 65 211 0.0 0.0 0.00 0.01 0.00 96 1012.9
20180617063552 65 211 0.0 0.0 0.00 0.01 0.00 96 1012.9
20180617062959 65 211 0.0 0.0 0.00 0.01 0.00 96 1013.0
20180617062426 65 211 0.0 0.0 0.00 0.01 0.00 95 1013.0
20180617061852 65 211 0.0 0.0 0.00 0.01 0.00 95 1013.0
20180617061251 65 211 0.0 0.0 0.00 0.01 0.00 95 1012.9
20180617060702 65 211 0.0 0.0 0.00 0.01 0.00 95 1012.9
20180617060122 65 211 0.0 0.0 0.00 0.02 0.00 95 1012.9
20180617055536 65 211 0.0 0.0 0.00 0.02 0.00 95 1012.6
20180617055003 65 211 0.0 0.0 0.00 0.02 0.00 95 1012.6
20180617054412 66 211 0.0 0.0 0.00 0.02 0.00 95 1012.5
20180617053821 66 211 0.0 0.0 0.00 0.02 0.00 95 1012.5
20180617053246 66 211 0.0 0.0 0.00 0.02 0.00 95 1012.5
20180617052654 66 211 0.0 0.0 0.00 0.02 0.00 95 1012.4
20180617052121 66 211 0.0 0.0 0.00 0.02 0.00 95 1012.4
20180617051525 66 211 0.0 0.0 0.00 0.02 0.00 95 1012.4
20180617050937 66 211 0.0 0.0 0.00 0.02 0.00 95 1012.4
20180617050403 66 211 0.0 0.0 0.00 0.02 0.00 95 1012.4
20180617045804 66 211 0.0 0.0 0.00 0.02 0.00 95 1012.4
20180617045228 66 211 0.0 0.0 0.00 0.02 0.00 95 1012.4
20180617044657 66 211 0.0 0.0 0.00 0.02 0.00 95 1012.4
20180617044109 67 211 0.0 0.0 0.00 0.02 0.00 95 1012.8
20180617043531 67 211 0.0 0.0 0.00 0.02 0.00 94 1012.8
20180617043020 67 211 0.0 0.0 0.00 0.02 0.00 94 1012.9
20180617042501 67 211 0.0 0.0 0.00 0.03 0.00 95 1012.9
20180617041922 67 211 0.0 0.0 0.00 0.05 0.00 95 1012.9
20180617041310 67 211 0.0 0.0 0.00 0.10 0.00 94 1013.0
20180617040725 67 211 0.0 0.0 0.00 0.10 0.00 94 1013.0
20180617040150 67 211 0.0 0.0 0.00 0.10 0.00 94 1013.0
20180617035559 67 211 0.0 0.0 0.00 0.10 0.10 93 1013.4
20180617035029 67 211 0.0 0.0 0.00 0.10 0.10 93 1013.4
20180617034433 68 211 0.0 0.0 0.00 0.10 0.10 94 1013.4